Hourly Data Report for November 26, 2016

All times are specified in Local Standard Time (LST). Add 1 hour to adjust for Daylight Saving Time where and when it is observed.

KITCHENER/WATERLOO
ONTARIO

43°27'39.000" N
80°22'43.000" W
321.60 m
6144239
71368
YKF

Download Data

Hourly Data (November 2016)
Hourly Data Report for November 26, 2016
Temp Definition
°C
Dew Point Temp Definition
°C
Rel Hum Definition
%
Wind Dir Definition
10's deg

Wind Spd Definition
km/h
Visibility Definition
km
Stn Press Definition
kPa
Hmdx Definition


Wind Chill Definition


Weather Definition


TIME
00:00 Legend Double Dagger 2.4 1.7 95 24 11 11.3 98.27     Rain
01:00 Legend Double Dagger 0.9 0.2 95 26 11 9.7 98.23     Snow
02:00 Legend Double Dagger 0.6 0.3 98 25 9 11.3 98.23     LegendNANA
03:00 Legend Double Dagger 1.1 0.5 96 25 8 16.1 98.21     Rain
04:00 Legend Double Dagger 1.3 0.7 96 23 9 16.1 98.21     LegendNANA
05:00 Legend Double Dagger 1.6 1.0 96 25 11 16.1 98.21     LegendNANA
06:00 Legend Double Dagger 1.7 1.3 97 27 9 4.8 98.23     Rain,Fog
07:00 Legend Double Dagger 1.8 1.4 97 30 8 8.1 98.26     Fog
08:00 Legend Double Dagger 1.5 1.1 97 30 8 16.1 98.28     Rain
09:00 Legend Double Dagger 2.0 1.4 96 30 8 16.1 98.31     LegendNANA
10:00 Legend Double Dagger 2.8 1.8 93 30 9 16.1 98.33     LegendNANA
11:00 Legend Double Dagger 3.4 1.7 89 30 13 16.1 98.34     LegendNANA
12:00 Legend Double Dagger 4.3 1.3 81 28 11 16.1 98.29     LegendNANA
13:00 Legend Double Dagger 4.6 1.2 79 28 13 16.1 98.24     LegendNANA
14:00 Legend Double Dagger 4.8 1.1 77 29 13 16.1 98.20     LegendNANA
15:00 Legend Double Dagger 4.5 1.4 80 31 11 16.1 98.19     Rain
16:00 Legend Double Dagger 3.5 2.0 90 30 9 14.5 98.23     Rain
17:00 Legend Double Dagger 2.5 1.2 91 30 11 16.1 98.24     Rain
18:00 Legend Double Dagger 2.8 1.3 90 28 18 16.1 98.24     LegendNANA
19:00 Legend Double Dagger 2.2 1.3 94 25 11 16.1 98.23     LegendNANA
20:00 Legend Double Dagger 2.6 1.3 91 25 15 16.1 98.23     LegendNANA
21:00 Legend Double Dagger 2.1 0.8 91 26 21 16.1 98.22     Rain
22:00 Legend Double Dagger 1.5 0.6 94 26 13 16.1 98.20     Rain
23:00 Legend Double Dagger 0.6 -0.1 95 23 9 16.1 98.17     LegendNANA

Notes on Data Quality.

Legend

  • E = Estimated
  • M = Missing
  • NA = Not Available
  • ‡ = Partner data that is not subject to review by the National Climate Archives
Date modified: